Temp
49 47 43 41 40 39 37 35 35 34 34 33 33 32 32 31 31 30 30 32 32 31 32 31 30 31 29 29 29 29 28 28 25 26 28 27 26 25 26 26 26 26 25
43 40 38 37 37 34 33 33 34 33 33 32 32 31 31 30 30 32 32 32 31 30 30 30 30 32 28 28 28 27 27 26 25 23 25 24 24 24 23 22 25 27 24
38 36 35 34 33 33 33 33 33 33 32 31 31 30 29 30 32 32 32 31 30 30 30 29 29 28 27 27 26 25 25 28 25 24 22 23 22 22 20 21 21 20 23
35 34 33 33 33 32 32 33 32 31 30 30 30 29 31 32 32 32 31 30 30 29 30 28 28 27 26 26 27 26 26 25 24 22 21 20 19 21 18 16 15 17 16
33 33 32 32 32 32 32 31 30 30 29 29 31 32 32 32 33 31 31 30 29 28 29 29 28 28 31 30 28 26 25 23 22 20 18 18 17 17 15 16 14 15 15
33 32 32 32 31 30 29 29 28 28 31 32 31 31 31 34 36 35 32 30 30 29 28 28 28 28 29 30 30 31 29 25 22 19 17 16 16 16 16 15 14 11 6
32 31 30 30 29 28 28 28 29 29 31 30 31 31 31 32 36 35 33 30 29 28 28 28 29 29 26 27 28 28 27 27 26 22 18 17 16 17 16 14 13 11 9
30 29 29 28 27 29 29 27 28 28 28 29 29 30 30 33 35 34 32 29 28 28 28 27 26 25 26 25 25 23 23 22 22 23 21 19 19 19 18 15 11 6 4
28 28 28 28 29 28 27 27 28 29 28 28 29 29 29 30 34 34 31 29 29 27 28 27 26 25 28 26 22 20 19 19 23 23 21 21 21 20 18 12 -4 -9 -2
27 28 31 32 31 27 28 28 29 30 29 29 29 28 27 29 33 33 31 29 26 26 26 26 28 27 27 28 23 17 15 16 15 12 11 11 12 11 15 10 6 -11 -11
28 30 30 30 29 29 28 28 28 28 27 25 25 25 25 26 29 32 31 27 25 23 23 22 22 27 28 28 26 16 18 13 10 7 6 5 6 6 7 8 7 4 -8
28 28 27 27 29 28 26 26 26 25 23 22 22 21 22 24 29 31 31 29 27 22 20 21 20 26 26 25 21 23 22 13 2 -0 -0 2 2 3 4 4 4 4 4
25 24 25 26 26 27 25 24 23 23 21 20 20 19 19 21 22 27 28 26 25 20 21 21 22 22 20 16 18 19 10 1 -2 -8 -2 1 2 3 3 0 -2 0 0
24 23 24 23 23 23 24 24 22 21 20 20 19 17 16 17 17 17 18 17 21 18 17 12 17 16 15 14 8 8 6 1 -0 -1 -1 -0 -1 -9 -4 -1 -3 -2 -4
23 23 22 22 21 21 21 20 20 19 21 17 14 16 13 10 20 21 17 14 9 15 -1 -3 -2 -1 0 1 1 -1 -3 -3 -4 -5 -4 -4 -4 -3 -4 -2 -4 -5 -8
21 21 21 20 20 22 22 22 30 28 28 27 25 19 16 25 26 25 24 23 23 21 -5 -9 -6 -3 -2 -1 -2 -2 -1 -6 -5 -6 -8 -8 -6 -5 -6 -5 -5 -8 -10
22 20 17 17 18 19 19 20 21 26 29 28 27 26 25 24 24 22 22 19 19 9 -12 -13 -11 -6 -3 -2 -4 -4 -3 -3 -9 -9 -7 -6 -6 -6 -9 -9 -8 -9 -10
16 15 17 17 14 12 12 11 17 15 10 9 20 20 22 22 21 21 20 8 -7 -7 -16 -15 -10 -7 -5 -5 -4 -4 -4 -5 -9 -7 -7 -7 -8 -9 -11 -11 -10 -11 -11
15 13 13 11 11 11 11 10 8 6 1 -2 -2 7 4 18 19 16 14 -10 -12 -11 -14 -11 -10 -8 -6 -5 -5 -6 -7 -7 -7 -8 -8 -8 -9 -11 -13 -12 -11 -11 -11
8 11 10 9 9 9 10 7 4 -0 -5 -7 -8 -6 -9 -6 -8 -13 -15 -18 -18 -11 -9 -9 -6 -8 -7 -7 -7 -7 -10 -10 -9 -11 -11 -10 -10 -11 -12 -12 -12 -13 -12
8 7 7 5 4 4 4 5 2 -3 -7 -11 -8 -7 9 -6 -10 -16 -14 -12 -11 -9 -8 -8 -6 -6 -6 -6 -7 -10 -11 -11 -10 -11 -10 -10 -10 -12 -11 -11 -11 -13 -12
7 5 5 3 -2 -1 -3 -3 -4 -6 -12 -10 -10 -9 14 -12 -15 -14 -11 -8 -7 -9 -9 -9 -7 -7 -6 -6 -7 -8 -9 -10 -10 -11 -12 -11 -12 -11 -11 -12 -13 -13 -13
6 4 1 -3 -4 -3 -9 -12 -8 -10 -13 -15 -15 -14 -15 -15 -16 -13 -9 -6 -7 -6 -6 -12 -10 -7 -6 -7 -8 -8 -8 -8 -8 -9 -11 -10 -10 -11 -11 -12 -12 -13 -13
4 4 2 -3 -5 -7 -7 -9 -12 -8 -11 -15 -18 -17 -16 -15 -12 -10 -8 -7 -7 -6 -5 -8 -8 -7 -6 -6 -5 -7 -8 -7 -7 -8 -10 -10 -10 -10 -11 -11 -11 -11 -12
-1 0 2 1 -1 -5 -10 -12 -11 -11 -4 -11 -15 -17 -16 -13 -11 -8 -7 -7 -6 -7 -6 -7 -6 -7 -8 -7 -8 -7 -6 -4 -5 -6 -7 -7 -9 -9 -9 -10 -10 -9 -10
3 2 1 -2 -4 -7 -7 -8 -9 -6 -5 -6 -11 -10 -11 -9 -8 -7 -6 -7 -6 -6 -6 -4 -4 -6 -7 -6 -5 -4 -3 1 1 1 -1 -5 -7 -8 -8 -8 -8 -8 -8
MSLP
1006.97 1008.34 1009.69 1011.19 1012.45 1013.71 1014.97 1016.60 1017.86 1019.20 1020.56 1022.22 1023.12 1023.97 1024.44 1025.08 1025.85 1026.85 1027.29 1027.44 1028.07 1028.39 1028.64 1028.68 1029.13 1029.40 1029.65 1029.90 1030.00 1030.22 1030.37 1030.37 1030.57 1030.64 1030.67 1030.66 1030.78 1030.75 1030.49 1030.37 1030.05 1029.67 1029.44
1007.67 1009.05 1010.66 1012.05 1013.49 1014.37 1015.54 1016.78 1018.65 1019.88 1021.18 1022.50 1023.49 1024.52 1025.35 1025.77 1026.81 1027.15 1027.48 1028.18 1028.39 1028.68 1028.88 1029.16 1029.54 1029.91 1030.14 1030.43 1030.67 1030.77 1030.97 1031.01 1031.02 1030.95 1030.73 1030.73 1030.72 1030.70 1030.62 1030.39 1030.00 1029.70 1029.47
1008.79 1010.04 1011.67 1013.27 1014.41 1015.73 1016.22 1017.54 1019.10 1020.54 1022.16 1022.72 1023.87 1025.11 1025.57 1026.16 1026.89 1027.18 1027.65 1028.34 1028.73 1029.10 1029.43 1029.76 1030.17 1030.26 1030.69 1031.04 1031.17 1031.31 1031.45 1031.39 1031.25 1031.14 1030.92 1030.83 1030.75 1030.67 1030.54 1030.25 1029.99 1029.54 1029.36
1009.85 1011.37 1012.59 1014.27 1015.51 1016.38 1017.94 1018.62 1019.48 1021.25 1023.23 1024.20 1024.45 1025.41 1025.98 1026.47 1027.01 1027.58 1028.18 1028.60 1029.05 1029.34 1029.79 1030.24 1030.67 1030.81 1031.08 1031.27 1031.19 1031.36 1031.45 1031.30 1031.22 1031.30 1031.17 1030.99 1031.05 1030.70 1030.58 1030.26 1029.59 1029.51 1029.19
1010.76 1012.61 1013.76 1015.08 1016.17 1017.18 1019.13 1020.37 1021.19 1022.27 1023.80 1025.21 1024.99 1025.77 1026.05 1026.82 1027.57 1027.87 1028.37 1029.01 1029.57 1029.88 1030.18 1030.66 1031.00 1031.07 1031.00 1031.17 1030.98 1031.14 1031.29 1031.35 1031.38 1031.35 1031.16 1031.06 1030.99 1030.57 1030.39 1030.16 1029.78 1029.26 1028.79
1012.34 1013.36 1014.68 1016.30 1017.28 1018.45 1020.05 1021.70 1021.98 1023.45 1024.40 1025.18 1025.40 1025.58 1026.04 1027.16 1027.79 1028.14 1028.75 1029.38 1029.68 1030.00 1030.49 1030.86 1031.07 1031.17 1031.09 1031.12 1031.01 1031.08 1031.19 1031.10 1031.29 1031.30 1031.26 1031.16 1030.85 1030.61 1030.33 1030.14 1029.60 1029.30 1028.50
1013.65 1014.75 1016.38 1017.65 1018.54 1019.75 1021.12 1021.93 1023.13 1024.40 1025.07 1025.61 1025.99 1026.29 1026.67 1027.34 1028.13 1028.54 1028.90 1029.69 1029.96 1030.35 1030.63 1030.71 1030.94 1031.33 1031.43 1031.43 1031.36 1031.34 1031.49 1031.27 1031.13 1031.21 1031.21 1031.25 1030.82 1030.69 1030.37 1029.79 1029.63 1029.60 1029.34
1015.20 1016.33 1017.88 1018.88 1019.88 1021.13 1022.22 1022.90 1024.31 1025.04 1026.07 1026.71 1026.75 1027.30 1027.58 1027.90 1028.42 1028.79 1029.45 1029.89 1030.31 1030.59 1030.72 1030.89 1031.23 1031.39 1031.39 1031.38 1031.62 1031.48 1031.50 1031.59 1031.44 1030.95 1031.29 1031.21 1030.83 1030.52 1030.07 1029.61 1029.66 1029.95 1029.58
1017.05 1018.20 1019.50 1020.43 1020.96 1022.13 1022.96 1023.71 1024.69 1025.76 1026.71 1027.15 1027.81 1028.34 1028.29 1028.31 1028.52 1029.14 1029.63 1030.22 1030.38 1030.63 1030.85 1031.23 1031.34 1031.60 1031.29 1031.48 1031.41 1031.35 1031.73 1031.41 1031.10 1031.14 1031.33 1031.26 1030.92 1030.44 1030.00 1029.59 1030.27 1030.38 1029.54
1019.04 1020.08 1020.70 1021.20 1021.95 1023.25 1023.72 1024.48 1025.32 1026.12 1027.08 1028.45 1028.88 1028.86 1028.54 1028.92 1028.99 1029.38 1029.73 1030.13 1030.61 1031.03 1031.27 1031.41 1031.35 1031.55 1031.20 1031.06 1031.11 1031.86 1031.62 1031.56 1031.80 1032.07 1031.88 1031.50 1031.05 1030.77 1030.28 1030.33 1030.19 1030.24 1030.33
1020.94 1021.77 1022.09 1022.63 1022.94 1023.75 1024.46 1025.17 1026.23 1027.42 1028.36 1028.93 1028.98 1029.39 1029.44 1029.49 1029.60 1029.90 1030.35 1030.74 1030.93 1031.25 1031.60 1031.78 1031.87 1031.40 1031.31 1030.89 1030.87 1031.72 1031.05 1032.06 1032.10 1032.03 1031.59 1031.17 1031.00 1030.69 1030.47 1030.20 1030.05 1029.97 1029.82
1022.38 1022.65 1023.10 1023.77 1024.49 1024.74 1025.67 1026.75 1027.60 1028.28 1028.61 1029.10 1029.80 1030.23 1030.34 1030.49 1030.17 1030.28 1030.51 1030.70 1031.02 1031.58 1031.91 1032.14 1032.27 1031.60 1031.33 1031.18 1031.37 1030.94 1030.66 1031.59 1032.19 1031.84 1031.44 1030.91 1030.63 1030.24 1029.97 1029.85 1029.62 1029.37 1029.15
1023.20 1023.90 1024.39 1025.06 1025.56 1026.08 1026.68 1027.41 1028.00 1028.40 1029.05 1029.67 1030.28 1030.72 1031.02 1031.21 1031.48 1031.21 1031.21 1031.47 1031.65 1032.11 1032.16 1032.13 1032.01 1032.24 1032.01 1031.86 1031.52 1031.22 1031.87 1032.25 1032.09 1031.96 1031.33 1030.70 1030.23 1029.83 1029.53 1029.34 1029.11 1028.79 1028.58
1024.28 1024.93 1025.60 1026.17 1026.84 1026.96 1027.35 1027.64 1028.01 1028.61 1029.05 1029.83 1030.68 1031.17 1031.59 1031.82 1031.98 1032.32 1032.24 1032.51 1032.25 1032.44 1032.61 1033.13 1032.48 1032.19 1032.11 1032.04 1032.55 1032.14 1032.05 1032.09 1031.95 1031.61 1030.95 1030.39 1030.03 1029.98 1029.54 1029.09 1028.84 1028.54 1028.07
1025.46 1026.05 1026.63 1026.91 1027.31 1027.86 1028.18 1028.15 1028.30 1029.07 1029.36 1029.82 1030.56 1031.21 1031.83 1031.91 1031.83 1032.16 1032.48 1032.61 1032.92 1032.63 1033.79 1033.83 1033.14 1033.10 1033.23 1032.82 1032.43 1032.20 1032.26 1032.00 1031.76 1031.18 1030.65 1030.29 1029.94 1029.48 1028.98 1028.60 1028.41 1028.10 1027.84
1026.18 1026.87 1027.51 1027.78 1028.21 1028.40 1028.50 1028.81 1029.18 1029.40 1029.46 1029.89 1030.53 1031.23 1031.74 1031.24 1031.59 1032.03 1032.15 1031.83 1031.81 1031.89 1033.69 1034.36 1034.19 1033.70 1033.29 1033.00 1032.73 1032.34 1031.92 1031.58 1031.25 1030.83 1030.41 1030.02 1029.53 1029.01 1028.52 1028.10 1027.97 1027.71 1027.10
1026.75 1027.52 1028.17 1028.74 1029.23 1029.34 1029.55 1029.56 1029.42 1029.83 1029.88 1030.44 1030.95 1031.16 1031.39 1031.48 1031.96 1032.17 1032.04 1032.32 1032.26 1033.08 1034.32 1034.76 1034.37 1033.91 1033.45 1033.02 1032.59 1032.19 1031.58 1031.09 1030.91 1030.52 1030.09 1029.43 1028.88 1028.47 1028.26 1027.79 1027.38 1026.93 1026.13
1027.53 1028.08 1028.66 1029.19 1029.63 1029.95 1030.30 1030.83 1030.81 1031.08 1031.63 1031.97 1032.11 1032.10 1031.69 1031.71 1031.95 1032.07 1032.33 1033.29 1033.59 1033.89 1034.35 1034.74 1034.42 1033.80 1033.23 1032.62 1031.93 1031.41 1030.89 1030.60 1030.36 1029.92 1029.47 1028.91 1028.40 1028.12 1027.76 1027.30 1026.77 1026.07 1025.27
1028.00 1028.52 1028.85 1029.45 1029.98 1030.39 1030.81 1031.44 1032.28 1032.93 1033.21 1033.82 1033.80 1033.23 1033.34 1032.00 1032.06 1032.60 1033.12 1034.34 1035.16 1035.08 1034.58 1034.36 1033.79 1033.20 1032.57 1031.95 1031.33 1030.85 1030.55 1030.18 1029.78 1029.40 1028.84 1028.28 1027.77 1027.56 1027.10 1026.58 1025.92 1025.25 1024.61
1028.55 1028.91 1029.34 1030.02 1030.91 1031.23 1031.37 1032.13 1033.16 1033.81 1034.30 1034.70 1034.57 1034.19 1034.08 1034.11 1034.00 1034.07 1034.62 1035.02 1035.27 1034.99 1034.44 1033.90 1032.99 1032.39 1031.92 1031.45 1030.87 1030.37 1029.99 1029.60 1029.18 1028.68 1028.04 1027.50 1027.05 1026.86 1026.47 1025.89 1025.27 1024.50 1023.85
1029.20 1029.50 1029.90 1030.90 1031.59 1031.75 1032.18 1032.85 1033.24 1033.97 1034.58 1035.05 1034.96 1034.55 1034.59 1034.54 1034.88 1034.90 1034.86 1035.12 1035.07 1034.47 1033.76 1033.13 1032.41 1031.81 1031.26 1030.78 1030.21 1029.78 1029.35 1028.84 1028.33 1027.84 1027.27 1026.72 1026.26 1026.00 1025.60 1025.07 1024.35 1023.77 1022.98
1029.61 1030.13 1030.72 1031.55 1032.24 1032.81 1033.22 1033.41 1033.80 1034.24 1034.87 1035.39 1034.91 1034.90 1034.97 1034.78 1034.82 1034.81 1034.67 1034.45 1033.97 1033.59 1032.90 1032.53 1031.78 1031.07 1030.37 1029.99 1029.46 1029.02 1028.49 1027.93 1027.30 1026.82 1026.38 1025.93 1025.46 1025.03 1024.63 1024.13 1023.49 1022.85 1022.12
1029.67 1030.67 1031.37 1031.95 1032.52 1033.16 1033.80 1034.16 1034.38 1034.68 1034.98 1034.94 1034.97 1035.05 1035.13 1034.98 1034.76 1034.48 1034.32 1033.86 1033.15 1032.46 1031.82 1031.70 1031.08 1030.12 1029.44 1028.97 1028.52 1028.10 1027.63 1026.77 1026.17 1025.85 1025.51 1025.09 1024.56 1024.06 1023.62 1022.99 1022.34 1021.68 1021.03
1030.45 1030.88 1031.61 1032.51 1033.30 1033.80 1034.18 1034.61 1034.57 1034.47 1034.84 1035.19 1035.25 1035.24 1035.04 1034.79 1034.58 1034.31 1033.89 1033.14 1032.47 1031.85 1031.16 1030.63 1029.94 1029.21 1028.44 1027.80 1027.22 1026.75 1026.31 1025.61 1025.12 1024.76 1024.57 1024.11 1023.45 1022.75 1022.26 1021.67 1021.00 1020.32 1019.66
1031.11 1031.80 1032.19 1032.55 1033.07 1033.66 1034.23 1034.51 1034.62 1034.89 1035.01 1035.09 1034.99 1034.90 1034.71 1034.61 1034.32 1033.69 1032.92 1032.24 1031.75 1031.31 1030.35 1029.57 1028.84 1028.14 1027.58 1026.89 1026.24 1025.45 1024.74 1024.10 1023.75 1023.32 1023.13 1022.65 1021.91 1021.19 1020.72 1020.20 1019.43 1018.89 1018.24
1031.07 1031.55 1032.04 1032.50 1032.96 1033.30 1033.66 1034.12 1034.50 1034.76 1034.72 1034.57 1034.50 1034.50 1034.39 1034.12 1033.51 1032.81 1031.99 1031.42 1030.92 1030.26 1029.53 1028.61 1027.77 1027.07 1026.39 1025.71 1024.92 1024.15 1023.33 1022.55 1022.06 1021.35 1020.91 1020.62 1019.99 1019.45 1018.97 1018.49 1017.71 1017.31 1016.70
Wind_Speed
14 13 15 14 16 16 16 16 16 17 16 13 12 11 11 11 10 8 7 7 8 8 6 7 7 5 4 4 4 4 3 2 1 1 1 2 1 3 4 4 5 5 5
14 16 16 16 15 18 18 19 18 17 15 14 13 12 10 10 7 8 9 7 8 7 7 6 5 5 6 6 4 4 3 3 1 3 2 1 1 2 2 4 6 7 8
16 18 18 16 17 16 20 19 18 18 14 15 14 11 10 8 9 9 9 8 7 7 6 6 4 6 5 4 4 3 2 2 1 2 2 1 2 2 3 4 7 6 8
18 18 19 18 17 18 15 18 18 17 14 11 11 10 9 10 9 9 9 8 7 6 6 6 5 5 5 3 3 2 2 2 2 1 2 2 3 2 3 7 7 6 8
22 19 20 19 21 19 18 17 16 16 13 10 12 11 10 9 6 9 8 8 7 6 6 6 4 4 5 4 2 2 2 1 1 2 3 3 5 5 7 6 8 8 7
19 24 19 19 19 19 18 16 17 13 12 12 11 12 11 7 15 15 10 6 6 6 5 4 4 4 3 5 6 8 3 3 4 4 3 5 7 6 6 7 8 8 7
21 21 19 18 19 17 17 16 14 12 11 11 10 11 11 10 16 15 13 6 6 5 4 4 4 3 2 2 5 5 5 7 8 6 6 6 7 7 8 9 8 7 8
20 20 18 18 18 15 15 15 13 11 10 9 10 10 10 9 15 14 12 6 5 4 4 4 4 3 3 3 1 1 2 3 4 4 4 6 9 10 8 8 6 5 5
19 18 16 15 16 15 15 14 11 11 10 9 8 8 9 8 13 12 8 4 6 4 4 3 4 2 4 2 1 1 4 6 6 7 11 14 16 17 14 5 3 4 7
15 15 13 13 14 14 14 13 10 11 11 8 9 7 8 8 12 11 7 4 5 4 4 5 4 2 8 9 3 1 6 4 3 4 5 7 9 9 13 5 3 1 2
13 11 12 12 14 12 12 11 11 11 10 9 10 7 7 6 8 12 11 5 4 3 3 2 3 8 8 10 7 2 7 5 5 3 4 4 4 5 4 4 4 5 3
12 13 12 10 9 10 12 10 10 9 10 9 8 6 5 5 9 11 10 9 8 4 3 1 3 9 10 11 7 13 12 7 2 3 3 4 5 5 4 4 7 7 7
13 12 12 11 10 9 9 9 8 8 7 6 6 6 5 5 5 10 9 9 7 3 2 3 7 7 9 6 10 13 6 2 3 2 4 5 4 6 7 6 5 8 9
13 11 9 10 8 7 6 5 7 6 6 6 6 6 4 2 3 2 3 2 3 2 2 2 4 6 9 7 4 5 3 2 3 5 5 5 5 2 5 5 6 7 7
10 9 8 7 8 7 6 5 5 3 5 6 4 5 4 2 3 5 4 3 2 2 1 2 3 3 3 3 4 4 3 3 3 3 5 6 6 6 6 6 6 7 8
10 7 5 6 5 6 7 8 14 14 16 15 13 7 2 6 6 3 4 6 5 6 4 2 2 2 3 5 6 7 6 5 4 4 4 5 7 7 8 7 7 7 9
9 8 5 5 5 6 6 8 10 10 15 14 12 10 8 6 5 3 6 6 8 6 2 2 3 3 5 6 6 6 7 6 3 4 6 7 7 7 7 7 8 8 9
6 7 5 4 4 4 4 3 5 7 4 2 5 5 6 4 3 4 6 6 4 4 0 2 4 5 6 7 7 6 7 6 4 6 7 8 7 8 8 8 8 9 10
6 5 5 4 4 5 5 5 4 4 2 2 2 2 5 5 5 6 6 3 2 4 3 4 5 6 7 7 7 7 7 7 7 8 8 8 8 6 8 8 9 11 12
3 6 5 4 4 4 5 5 4 3 3 3 2 2 3 3 4 3 2 1 3 5 5 6 7 6 7 7 8 7 7 7 7 6 7 8 7 6 8 9 9 10 9
3 4 7 4 2 2 3 4 4 4 4 2 3 2 5 3 2 3 2 4 5 6 6 6 7 7 7 7 7 6 7 8 8 7 7 8 7 7 7 8 9 9 10
4 4 4 5 3 3 2 2 3 3 3 3 2 3 5 1 1 3 4 6 6 6 5 6 7 7 7 8 8 8 8 9 8 7 7 7 7 8 8 9 9 9 10
6 5 4 3 3 4 3 1 3 3 3 2 1 2 2 3 3 3 5 7 6 7 6 5 7 8 7 7 7 8 9 10 9 7 8 8 9 8 8 10 10 10 9
4 5 6 4 3 2 3 3 2 2 2 2 2 3 3 3 4 6 7 7 7 8 7 7 7 10 10 9 8 8 9 10 9 9 10 9 10 11 10 10 10 12 11
4 3 4 6 5 5 4 3 2 2 2 2 4 3 3 4 5 7 7 6 7 7 9 8 7 10 12 13 14 16 16 19 14 13 9 12 14 16 13 10 12 11 13
5 5 4 4 4 4 4 3 2 3 3 3 3 4 4 6 7 7 7 7 7 8 9 9 10 13 15 13 15 17 18 20 17 19 13 11 12 12 11 13 17 11 13
Wind_Direction
141 135 130 127 127 123 120 117 116 113 109 106 106 106 106 97 102 103 111 101 96 95 84 91 85 73 70 63 53 46 47 45 65 312 321 4 84 0 337 334 337 308 341
124 119 115 116 118 117 117 116 116 108 108 110 106 103 108 107 117 117 104 104 109 107 100 92 94 96 70 56 50 53 42 51 15 284 284 305 296 322 299 298 333 335 329
112 111 109 110 114 113 112 112 117 108 110 110 113 120 119 124 109 103 108 105 102 95 87 89 95 85 74 68 57 44 29 8 352 285 286 301 273 286 295 314 319 323 319
104 107 108 107 106 108 99 106 102 104 106 106 114 112 116 108 108 108 108 106 99 97 96 87 78 84 89 82 59 11 347 313 315 306 285 290 278 292 302 317 317 314 313
107 102 108 109 107 101 102 101 97 103 111 124 114 111 106 105 117 116 110 106 109 103 88 94 92 107 86 55 50 339 8 12 320 317 314 306 304 318 316 318 304 309 306
100 104 103 103 102 105 105 107 107 113 114 117 115 114 111 112 121 118 113 123 111 103 111 104 105 101 53 23 5 345 337 335 5 338 315 305 309 307 304 307 311 323 326
103 101 101 105 102 102 111 112 110 112 116 114 108 103 102 109 118 120 115 97 102 109 114 120 111 75 21 4 2 43 34 4 352 342 324 311 315 321 316 318 322 311 297
97 97 101 104 105 113 105 106 112 106 105 107 103 104 105 112 117 109 111 108 106 103 101 99 99 61 355 92 62 8 33 346 318 321 319 332 327 321 326 319 337 307 294
93 96 103 113 116 114 114 109 106 113 112 100 99 109 105 99 111 112 111 115 107 93 87 87 83 71 342 80 153 345 312 297 314 342 347 333 328 328 318 346 332 10 314
95 103 109 107 106 109 115 113 111 101 100 109 103 87 88 96 105 113 107 97 87 72 62 58 45 60 356 333 45 40 302 312 30 344 314 318 325 313 328 334 339 292 276
94 99 93 97 104 104 102 97 100 106 112 107 96 83 84 77 90 86 80 75 80 86 89 71 8 332 330 336 12 291 294 83 339 313 305 299 292 292 302 310 302 294 254
95 91 88 85 94 94 95 99 105 113 105 102 102 86 60 55 80 78 73 67 89 100 70 33 300 332 334 339 350 323 345 357 303 307 299 303 300 308 306 292 288 283 270
87 86 82 81 79 90 110 112 109 105 114 115 109 99 78 60 49 65 78 77 70 75 91 354 336 337 344 355 335 332 11 325 288 307 298 293 291 300 301 298 281 272 269
97 89 87 96 99 85 88 103 114 122 112 112 119 112 106 95 92 81 77 69 65 100 44 319 340 359 353 347 321 325 304 280 278 281 285 290 297 301 284 284 292 294 284
98 100 100 89 90 92 80 87 83 54 130 129 111 128 130 104 147 158 176 216 207 157 151 3 6 359 322 300 315 303 282 283 285 266 290 294 291 287 280 282 273 279 264
104 99 98 103 93 98 103 101 100 105 106 116 128 136 211 126 106 73 26 21 8 15 45 18 302 279 314 310 301 295 291 276 270 264 274 275 283 286 285 281 271 268 273
117 114 98 104 129 125 116 122 124 110 113 120 128 122 114 107 93 52 28 18 10 35 63 280 290 301 296 292 284 277 284 283 272 269 278 276 278 279 282 279 282 278 276
97 104 128 136 130 117 113 111 123 131 132 83 91 103 101 92 70 33 17 27 2 358 276 265 291 286 281 276 281 281 285 289 276 277 276 275 274 274 280 280 280 276 278
135 141 141 130 119 119 115 97 99 113 137 160 329 21 24 38 37 24 30 101 250 295 286 286 250 263 276 279 280 279 277 280 281 282 275 273 277 274 272 275 272 270 276
93 120 103 105 119 130 128 127 128 134 143 186 202 232 342 36 27 339 340 354 280 267 271 269 283 275 276 278 284 281 283 278 276 265 266 269 273 268 275 278 277 282 280
115 106 106 88 101 107 126 154 152 148 163 193 231 259 215 131 236 236 280 268 259 267 273 274 286 280 279 278 276 273 274 271 269 268 270 274 277 277 274 274 278 276 279
120 118 119 129 119 103 133 135 146 148 163 172 243 294 312 72 232 253 266 271 269 256 258 259 273 271 273 276 279 277 274 271 272 263 260 269 272 276 276 274 276 275 277
120 117 103 96 111 117 98 127 149 158 173 208 239 276 290 279 282 280 280 280 281 283 279 254 264 279 273 264 256 261 270 273 270 262 263 273 277 274 270 270 272 273 272
94 123 133 129 131 140 147 175 189 152 172 237 252 262 270 275 275 274 273 274 278 278 274 266 260 267 281 279 274 263 255 262 264 260 251 260 266 271 264 262 265 267 270
119 125 154 165 168 170 162 182 189 226 238 242 261 268 279 276 275 272 271 271 273 274 279 273 271 270 271 275 274 277 274 276 270 267 260 251 254 259 260 262 266 267 269
151 158 167 165 168 168 169 169 204 224 243 254 258 260 261 272 268 270 279 280 282 282 282 284 278 273 277 279 279 280 281 282 278 263 247 240 244 249 251 252 261 261 266